[[{"header":{"parameterUnit":"m.s-1","parameterCategory":1,"la1":30.2991,"la2":30.254,"lo1":-89.0895,"lo2":-89.0444,"dy":0.0017,"dx":0.0017,"nx":28,"ny":28,"refTime":"2024-03-18T21:00:00:Z","depth":0,"parameterNumber":2,"parameterNumberName":"U-component_of_WINDS"},"data":[0,0,0,0,0,0,0,0,0,0,0,0,0,0,0,0,0,0,0,0,0,0,0,0,0,0,0,0,0,0,0,0,0,0,0,0,0,0,0,0,0,0,0,0,0,0,0,0,0,0,0,0,0,0,0,0,0,0,0.6689,0.6689,0,0.6685,0.6685,0.6685,0.6694,0.6694,0.6695,0.6695,0.669,0.6689,0.6689,0,0,0,0,0,0,0,0,0,0,0,0,0,0.6704,0.6704,0.6689,0.6689,0.6689,0.6685,0.6685,0.6685,0.6694,0.6694,0.6695,0.6695,0.669,0.6689,0.6689,0,0,0,0,0,0,0,0,0,0,0,0,0,0.6699,0.6704,0.6689,0.6693,0.6693,0.6685,0.6685,0.6685,0.6694,0.6694,0.6695,0.6695,0.669,0.6689,0.6689,0.6676,0,0,0.6687,0.6687,0,0,0,0,0,0,0,0,0.6699,0.6698,0.6693,0.6693,0.6693,0.6691,0.6688,0.6682,0.6694,0.6694,0.6695,0.6696,0.669,0.6689,0.6687,0.6676,0.6675,0.6687,0.6686,0.6686,0.6686,0,0,0,0,0,0,0,0.6699,0.6698,0.6687,0.6692,0.6693,0.6695,0.6695,0.6687,0.6689,0.6694,0.6694,0.6694,0.669,0.6688,0.6687,0.6675,0.6687,0.6686,0.6686,0.6686,0.6654,0.6653,0,0,0,0,0,0,0.6699,0.6699,0.6688,0.6687,0.6697,0.6694,0.6694,0.6691,0.6689,0.6689,0.6694,0.6694,0.6689,0.6688,0.6687,0.6672,0.6686,0.6686,0.6685,0.6654,0.6654,0.6653,0,0,0,0,0,0,0.67,0.6698,0.6688,0.6693,0.6692,0.6694,0.669,0.6691,0.6689,0.6689,0.6689,0.6691,0.6689,0.6688,0.6679,0.6672,0.6685,0.6685,0.6655,0.6654,0.6654,0.6642,0,0,0,0,0,0,0.67,0.6698,0.6693,0.6693,0.6692,0.668,0.669,0.669,0.6688,0.6689,0.6687,0.6687,0.6689,0.668,0.6678,0.6671,0.6684,0.6656,0.6655,0.6654,0.6643,0.6641,0.6639,0,0,0,0,0,0.6701,0.669,0.6693,0.6692,0.6686,0.6679,0.6678,0.6681,0.6687,0.6682,0.6683,0.6687,0.6673,0.6679,0.6677,0.667,0.6656,0.6655,0.6654,0.6644,0.6641,0.6639,0,0,0,0,0,0,0.6688,0.669,0.6693,0.6682,0.6681,0.6681,0.6674,0.6679,0.6675,0.6676,0.668,0.6679,0.667,0.6669,0.6675,0.6658,0.6666,0.6664,0.6658,0.6656,0.6654,0.6654,0.6684,0,0,0,0,0,0.6685,0.668,0.6681,0.6671,0.667,0.6672,0.667,0.6673,0.6671,0.667,0.667,0.6668,0.6663,0.666,0.6655,0.6643,0.6643,0.6638,0.6636,0.6634,0.6633,0.6627,0.6625,0.665,0.665,0.665,0,0,0.6676,0.6677,0.6673,0.6669,0.6668,0.6662,0.6672,0.6665,0.6661,0.6669,0.666,0.666,0.6658,0.6648,0.6643,0.6647,0.6626,0.6633,0.6632,0.6631,0.6626,0.6623,0.6621,0.6649,0.6649,0.6649,0,0,0.6658,0.6658,0.665,0.6649,0.6648,0.665,0.6648,0.6648,0.6648,0.664,0.6646,0.6641,0.6633,0.6632,0.663,0.6613,0.6617,0.6612,0.6602,0.6596,0.6594,0.6592,0.6586,0.6584,0.661,0.661,0.661,0,0.6648,0.664,0.6645,0.6639,0.6637,0.6644,0.6636,0.6635,0.6632,0.6631,0.6636,0.6626,0.6625,0.6615,0.6611,0.6609,0.6607,0.6611,0.6594,0.6592,0.6591,0.6585,0.6583,0.661,0.661,0.661,0.661,0,0.6628,0.6622,0.6616,0.6614,0.6611,0.6604,0.6608,0.6605,0.6608,0.661,0.6602,0.6602,0.6598,0.6596,0.6598,0.6586,0.6588,0.6594,0.6601,0.6588,0.6582,0.658,0.6609,0.6609,0.6609,0.6609,0,0,0.66,0.6602,0.66,0.6599,0.6599,0.6595,0.6589,0.6586,0.6583,0.6581,0.6576,0.657,0.6575,0.6573,0.6576,0.6571,0.6558,0.6577,0.6577,0.6573,0.6545,0.654,0.6538,0.6562,0.6561,0.6561,0.6545,0,0.6582,0.6571,0.6576,0.6565,0.656,0.6568,0.6563,0.6562,0.6564,0.656,0.6562,0.6557,0.6565,0.6564,0.6559,0.6561,0.6552,0.6562,0.6556,0.6556,0.6556,0.6535,0.653,0.6515,0.6543,0.6542,0.6542,0,0.6559,0.6558,0.6546,0.6548,0.6546,0.6541,0.6539,0.6536,0.6536,0.6537,0.6536,0.654,0.6534,0.6543,0.6535,0.6541,0.654,0.654,0.654,0.6539,0.6548,0.6533,0.651,0.6508,0.6539,0.6539,0.654,0,0.654,0.6535,0.6528,0.6527,0.6529,0.6526,0.6526,0.6527,0.6525,0.6523,0.6522,0.652,0.6518,0.6516,0.6521,0.6526,0.6512,0.6521,0.6513,0.6513,0.6509,0.6509,0.6485,0.6509,0.6509,0.6509,0.6509,0,0.6519,0.6512,0.6519,0.6515,0.6507,0.6513,0.6505,0.6506,0.6507,0.6503,0.651,0.6506,0.6512,0.6508,0.6512,0.6505,0.6504,0.6505,0.6506,0.6504,0.6504,0.6502,0.6503,0.6508,0.6508,0.6508,0.6508,0,0.6496,0.6501,0.6493,0.6497,0.6497,0.6491,0.6494,0.649,0.6493,0.6487,0.6487,0.6491,0.6488,0.6492,0.6488,0.6491,0.6481,0.6484,0.6481,0.6482,0.6474,0.6474,0.6447,0.6444,0.6471,0.647,0.647,0,0.6482,0.6477,0.648,0.6478,0.6478,0.6475,0.6473,0.648,0.6478,0.6478,0.6474,0.6471,0.6469,0.6464,0.6467,0.6464,0.6467,0.6458,0.6466,0.6465,0.6466,0.6466,0.6466,0.6455,0.6455,0.6455,0.6455,0,0.6456,0.646,0.6457,0.6456,0.6454,0.6454,0.6453,0.6451,0.6458,0.6456,0.6453,0.6451,0.6449,0.6446,0.6445,0.6446,0.6451,0.6452,0.645,0.6448,0.6446,0.6447,0.6476,0.6452,0.6453,0.6453,0.6453,0.6453,0.6437,0.6433,0.6435,0.6432,0.6433,0.6433,0.643,0.6433,0.643,0.6429,0.6433,0.6429,0.643,0.643,0.643,0.6427,0.6431,0.6428,0.6428,0.6427,0.6425,0.6448,0.6427,0.6427,0.6427,0.6427,0.6427,0,0.6412,0.6414,0.6411,0.6411,0.641,0.6416,0.6417,0.6415,0.6411,0.6412,0.6411,0.6408,0.6405,0.6409,0.6407,0.6405,0.6407,0.6404,0.6404,0.6404,0.6422,0.6424,0.6402,0.6402,0.6402,0.6402,0.6402,0.6402,0.6398,0.6391,0.6395,0.6389,0.6391,0.6388,0.6387,0.6388,0.6389,0.6385,0.6384,0.6386,0.6388,0.6387,0.6386,0.6387,0.6386,0.6382,0.6384,0.64,0.6403,0.6405,0.6406,0.6382,0.6382,0.6366,0.6366,0.6366]},{"header":{"parameterUnit":"m.s-1","parameterCategory":1,"la1":30.2991,"la2":30.254,"lo1":-89.0895,"lo2":-89.0444,"dy":0.0017,"dx":0.0017,"nx":28,"ny":28,"refTime":"2024-03-18T21:00:00:Z","depth":0,"parameterNumber":3,"parameterNumberName":"V-component_of_WINDS"},"data":[0,0,0,0,0,0,0,0,0,0,0,0,0,0,0,0,0,0,0,0,0,0,0,0,0,0,0,0,0,0,0,0,0,0,0,0,0,0,0,0,0,0,0,0,0,0,0,0,0,0,0,0,0,0,0,0,0,0,-6.7479,-6.748,0,-6.7587,-6.7589,-6.759,-6.7528,-6.7525,-6.7522,-6.7519,-6.7625,-6.7631,-6.7636,0,0,0,0,0,0,0,0,0,0,0,0,0,-6.7214,-6.7219,-6.7479,-6.748,-6.7482,-6.7587,-6.7589,-6.759,-6.7529,-6.7525,-6.7521,-6.7518,-6.7623,-6.763,-6.7637,0,0,0,0,0,0,0,0,0,0,0,0,0,-6.7326,-6.7221,-6.7479,-6.7464,-6.7464,-6.7587,-6.7589,-6.7591,-6.753,-6.7525,-6.752,-6.7516,-6.7621,-6.7629,-6.7638,-6.778,0,0,-6.7663,-6.7667,0,0,0,0,0,0,0,0,-6.732,-6.7336,-6.7465,-6.7465,-6.7465,-6.754,-6.7534,-6.7654,-6.7531,-6.7504,-6.7519,-6.7514,-6.76,-6.761,-6.764,-6.7785,-6.779,-6.7664,-6.7669,-6.7673,-6.7675,0,0,0,0,0,0,0,-6.7312,-6.7331,-6.7522,-6.7466,-6.7467,-6.745,-6.7461,-6.7557,-6.7576,-6.7506,-6.7502,-6.7516,-6.7599,-6.7632,-6.7642,-6.7791,-6.7664,-6.7671,-6.7677,-6.768,-6.8059,-6.8064,0,0,0,0,0,0,-6.7306,-6.7325,-6.7518,-6.7525,-6.738,-6.7459,-6.7471,-6.752,-6.7575,-6.7579,-6.752,-6.7513,-6.762,-6.7632,-6.7646,-6.7817,-6.7673,-6.7681,-6.7686,-6.8054,-6.8061,-6.8066,0,0,0,0,0,0,-6.7301,-6.7324,-6.7514,-6.7424,-6.7447,-6.7468,-6.7524,-6.7525,-6.7558,-6.7585,-6.7588,-6.755,-6.7617,-6.7634,-6.7748,-6.782,-6.7685,-6.7692,-6.8049,-6.8056,-6.8063,-6.816,0,0,0,0,0,0,-6.7293,-6.7322,-6.7378,-6.7426,-6.7452,-6.7616,-6.7528,-6.753,-6.7573,-6.7565,-6.7614,-6.7618,-6.7615,-6.7736,-6.7756,-6.7829,-6.7699,-6.8042,-6.8052,-6.8061,-6.8151,-6.817,-6.8187,0,0,0,0,0,-6.7284,-6.7399,-6.7381,-6.7405,-6.7522,-6.762,-6.7635,-6.763,-6.7579,-6.7634,-6.7652,-6.7617,-6.7809,-6.7748,-6.777,-6.7847,-6.8038,-6.8049,-6.806,-6.8143,-6.8166,-6.8186,0,0,0,0,0,0,-6.7357,-6.7405,-6.7385,-6.752,-6.7567,-6.761,-6.7679,-6.7655,-6.7716,-6.7706,-6.7695,-6.7707,-6.7826,-6.7847,-6.7779,-6.7988,-6.7915,-6.7931,-6.797,-6.7992,-6.801,-6.8002,-6.7706,0,0,0,0,0,-6.7389,-6.7467,-6.7504,-6.7619,-6.7644,-6.7658,-6.77,-6.7693,-6.774,-6.7759,-6.7785,-6.7831,-6.7901,-6.7948,-6.8014,-6.8153,-6.8163,-6.8217,-6.8235,-6.825,-6.8264,-6.834,-6.8364,-6.8103,-6.8103,-6.8103,0,0,-6.7456,-6.7492,-6.7541,-6.7635,-6.767,-6.7749,-6.7675,-6.7761,-6.782,-6.7771,-6.7881,-6.7902,-6.7953,-6.808,-6.8138,-6.8102,-6.8338,-6.8264,-6.8276,-6.8282,-6.8354,-6.8378,-6.84,-6.8111,-6.8109,-6.8108,0,0,-6.7617,-6.7653,-6.7753,-6.779,-6.7846,-6.7855,-6.7879,-6.7926,-6.7939,-6.8049,-6.8015,-6.8083,-6.8205,-6.8243,-6.8278,-6.8456,-6.8425,-6.8477,-6.8572,-6.8645,-6.8666,-6.8684,-6.8748,-6.8771,-6.8491,-6.8492,-6.8492,0,-6.7692,-6.7812,-6.7807,-6.7897,-6.7939,-6.7902,-6.8003,-6.8038,-6.8112,-6.8141,-6.8101,-6.8254,-6.8285,-6.8421,-6.8465,-6.8494,-6.8521,-6.8472,-6.8664,-6.8682,-6.8699,-6.8759,-6.8783,-6.8498,-6.8497,-6.8496,-6.8496,0,-6.7902,-6.7986,-6.806,-6.8135,-6.8185,-6.828,-6.8288,-6.8339,-6.8327,-6.834,-6.8453,-6.849,-6.8563,-6.8595,-6.8583,-6.873,-6.8706,-6.8665,-6.8591,-6.873,-6.8787,-6.881,-6.8506,-6.8504,-6.8502,-6.8501,0,0,-6.8112,-6.8184,-6.8211,-6.8245,-6.8304,-6.8368,-6.8461,-6.8535,-6.858,-6.8631,-6.8709,-6.8814,-6.8776,-6.8816,-6.8808,-6.8873,-6.9013,-6.8824,-6.8825,-6.8858,-6.9177,-6.9208,-6.9235,-6.8993,-6.8997,-6.9001,-6.9173,0,-6.8278,-6.8444,-6.8442,-6.8594,-6.8671,-6.8637,-6.8718,-6.8762,-6.8777,-6.8843,-6.8858,-6.8933,-6.8878,-6.8902,-6.8965,-6.8983,-6.9076,-6.897,-6.9064,-6.9067,-6.9053,-6.9264,-6.9297,-6.9458,-6.9195,-6.9198,-6.9201,0,-6.8494,-6.8556,-6.8717,-6.8766,-6.8798,-6.8871,-6.8939,-6.9004,-6.9053,-6.9059,-6.9104,-6.9087,-6.918,-6.9104,-6.9233,-6.916,-6.9198,-6.9213,-6.9219,-6.9228,-6.9143,-6.9279,-6.9509,-6.9533,-6.9236,-6.9233,-6.9231,0,-6.8632,-6.8755,-6.8868,-6.8898,-6.8957,-6.901,-6.9036,-6.9081,-6.9126,-6.9185,-6.9214,-6.9283,-6.932,-6.9373,-6.9374,-6.9318,-6.9504,-6.9427,-6.951,-6.9511,-6.9551,-6.9549,-6.9791,-6.9575,-6.9575,-6.9575,-6.9574,0,-6.8818,-6.8918,-6.8931,-6.9,-6.9111,-6.9107,-6.9216,-6.9238,-6.9279,-6.935,-6.9324,-6.9391,-6.9388,-6.9457,-6.9458,-6.9564,-6.9581,-6.9588,-6.9587,-6.959,-6.959,-6.9615,-6.9604,-6.9581,-6.958,-6.9578,-6.9577,0,-6.8991,-6.9004,-6.9124,-6.9172,-6.9186,-6.9265,-6.9305,-6.937,-6.9383,-6.9474,-6.9495,-6.9514,-6.9594,-6.96,-6.9691,-6.9691,-6.9821,-6.9807,-6.9805,-6.9803,-6.9885,-6.9878,-7.0153,-7.0189,-6.995,-6.9952,-6.9954,0,-6.9109,-6.9185,-6.9242,-6.9289,-6.932,-6.9396,-6.9442,-6.9442,-6.9491,-6.9554,-6.9611,-6.9688,-6.975,-6.9878,-6.9899,-6.9968,-6.9956,-7.0048,-6.9966,-6.9968,-6.9958,-6.9954,-6.9962,-7.0064,-7.0066,-7.0068,-7.007,0,-6.9317,-6.932,-6.9389,-6.9462,-6.9518,-6.9575,-6.9627,-6.9667,-6.9672,-6.9729,-6.9811,-6.9859,-6.9953,-7.0029,-7.0098,-7.0123,-7.0098,-7.0096,-7.0119,-7.0123,-7.0119,-7.0123,-6.9848,-7.009,-7.0088,-7.0086,-7.0085,-7.0084,-6.9466,-6.9533,-6.9584,-6.9662,-6.9702,-6.9752,-6.9816,-6.9838,-6.9907,-6.9985,-6.998,-7.007,-7.0117,-7.0207,-7.0238,-7.0308,-7.0277,-7.031,-7.0318,-7.0327,-7.0336,-7.0108,-7.032,-7.032,-7.0319,-7.0319,-7.0318,0,-6.9674,-6.9705,-6.9777,-6.9853,-6.9914,-6.9887,-6.9944,-6.9997,-7.0077,-7.0125,-7.0187,-7.0281,-7.0355,-7.0383,-7.0455,-7.0506,-7.0496,-7.0525,-7.0521,-7.0528,-7.0359,-7.0332,-7.0532,-7.0532,-7.0532,-7.0532,-7.0532,-7.0532,-6.9789,-6.9901,-6.991,-7.0041,-7.0071,-7.0162,-7.0197,-7.0242,-7.028,-7.0388,-7.045,-7.0468,-7.0508,-7.0583,-7.065,-7.0656,-7.0684,-7.0718,-7.0719,-7.0561,-7.0539,-7.0519,-7.0494,-7.0724,-7.0724,-7.0882,-7.0883,-7.0884]}]]